TimeEST,TemperatureF,Dew PointF,Humidity,Sea Level PressureIn,VisibilityMPH,Wind Direction,Wind SpeedMPH,Gust SpeedMPH,PrecipitationIn,Events,Conditions,WindDirDegrees,DateUTC
12:15 AM,14.0,-5.8,41,30.38,10.0,SW,3.5,-,N/A,,Partly Cloudy,220,2013-01-28 05:15:00
12:35 AM,12.2,-5.8,45,30.38,10.0,Calm,Calm,-,N/A,,Clear,0,2013-01-28 05:35:00
12:55 AM,12.2,-5.8,45,30.38,10.0,SW,4.6,-,N/A,,Clear,230,2013-01-28 05:55:00
1:15 AM,10.4,-5.8,48,30.38,10.0,SW,5.8,-,N/A,,Clear,220,2013-01-28 06:15:00
1:35 AM,12.2,-4.0,48,30.37,10.0,WSW,4.6,-,N/A,,Partly Cloudy,240,2013-01-28 06:35:00
1:55 AM,12.2,-2.2,53,30.38,10.0,SW,4.6,-,N/A,,Mostly Cloudy,230,2013-01-28 06:55:00
2:15 AM,14.0,-5.8,41,30.39,10.0,SW,10.4,-,N/A,,Scattered Clouds,230,2013-01-28 07:15:00
2:35 AM,12.2,-5.8,45,30.39,10.0,SW,10.4,-,N/A,,Clear,220,2013-01-28 07:35:00
2:55 AM,12.2,-5.8,45,30.38,10.0,SSW,4.6,-,N/A,,Clear,210,2013-01-28 07:55:00
3:15 AM,12.2,-5.8,45,30.37,10.0,SSW,5.8,-,N/A,,Clear,200,2013-01-28 08:15:00
3:35 AM,14.0,-7.6,38,30.36,10.0,SW,6.9,-,N/A,,Clear,220,2013-01-28 08:35:00
3:55 AM,12.2,-7.6,41,30.36,10.0,SSW,4.6,-,N/A,,Clear,200,2013-01-28 08:55:00
4:15 AM,12.2,-7.6,41,30.37,10.0,WSW,5.8,-,N/A,,Clear,240,2013-01-28 09:15:00
4:35 AM,12.2,-5.8,45,30.36,10.0,WSW,5.8,-,N/A,,Clear,240,2013-01-28 09:35:00
4:55 AM,12.2,-5.8,45,30.35,10.0,WSW,4.6,-,N/A,,Clear,250,2013-01-28 09:55:00
5:15 AM,12.2,-5.8,45,30.35,10.0,SW,3.5,-,N/A,,Clear,220,2013-01-28 10:15:00
5:35 AM,12.2,-5.8,45,30.36,10.0,SW,5.8,-,N/A,,Clear,230,2013-01-28 10:35:00
5:55 AM,10.4,-5.8,48,30.35,10.0,SW,3.5,-,N/A,,Clear,220,2013-01-28 10:55:00
6:15 AM,10.4,-5.8,48,30.35,10.0,Calm,Calm,-,N/A,,Clear,0,2013-01-28 11:15:00
6:35 AM,10.4,-5.8,48,30.35,10.0,Calm,Calm,-,N/A,,Clear,0,2013-01-28 11:35:00
6:55 AM,10.4,-5.8,48,30.34,10.0,SW,3.5,-,N/A,,Clear,230,2013-01-28 11:55:00
7:15 AM,12.2,-2.2,53,30.34,10.0,WSW,5.8,-,N/A,,Scattered Clouds,240,2013-01-28 12:15:00
7:35 AM,15.8,-2.2,45,30.34,10.0,SW,6.9,-,N/A,,Overcast,230,2013-01-28 12:35:00
7:55 AM,15.8,-2.2,45,30.34,10.0,WSW,5.8,-,N/A,,Overcast,250,2013-01-28 12:55:00
8:35 AM,15.8,-2.2,45,30.34,10.0,West,5.8,-,N/A,,Overcast,260,2013-01-28 13:35:00
8:55 AM,17.6,-4.0,38,30.33,10.0,WSW,3.5,-,N/A,,Overcast,250,2013-01-28 13:55:00
9:15 AM,17.6,-4.0,38,30.34,10.0,Calm,Calm,-,N/A,,Overcast,0,2013-01-28 14:15:00
9:35 AM,17.6,-2.2,42,30.33,10.0,Calm,Calm,-,N/A,,Overcast,0,2013-01-28 14:35:00
9:55 AM,19.4,-4.0,36,30.33,10.0,Calm,Calm,-,N/A,,Overcast,0,2013-01-28 14:55:00
10:15 AM,19.4,-5.8,33,30.33,10.0,Calm,Calm,-,N/A,,Overcast,0,2013-01-28 15:15:00
10:55 AM,19.4,-2.2,39,30.31,10.0,ENE,3.5,-,N/A,,Overcast,70,2013-01-28 15:55:00
11:15 AM,19.4,-0.4,42,30.30,10.0,ENE,3.5,-,N/A,,Overcast,60,2013-01-28 16:15:00
11:35 AM,19.4,-2.2,39,30.29,10.0,Calm,Calm,-,N/A,,Overcast,0,2013-01-28 16:35:00
11:55 AM,21.2,-0.4,39,30.27,10.0,Calm,Calm,-,N/A,,Overcast,0,2013-01-28 16:55:00
12:15 PM,21.2,-0.4,39,30.26,10.0,ENE,4.6,-,N/A,,Overcast,70,2013-01-28 17:15:00
12:35 PM,19.4,-0.4,42,30.24,10.0,Calm,Calm,-,N/A,,Overcast,0,2013-01-28 17:35:00
1:35 PM,21.2,-0.4,39,30.19,7.0,NNE,4.6,-,N/A,,Overcast,30,2013-01-28 18:35:00
1:55 PM,19.4,3.2,49,30.19,5.0,NE,5.8,-,N/A,,Overcast,50,2013-01-28 18:55:00
2:15 PM,17.6,8.6,68,30.18,5.0,NE,4.6,-,N/A,,Mostly Cloudy,40,2013-01-28 19:15:00
2:35 PM,17.6,10.4,73,30.18,1.2,NE,4.6,-,N/A,,Overcast,40,2013-01-28 19:35:00
2:55 PM,17.6,10.4,73,30.16,1.0,NNE,4.6,-,N/A,,Overcast,30,2013-01-28 19:55:00
3:15 PM,17.6,12.2,79,30.15,0.5,NE,3.5,-,N/A,,Overcast,40,2013-01-28 20:15:00
3:35 PM,17.6,12.2,79,30.15,0.5,NE,3.5,-,N/A,,Overcast,50,2013-01-28 20:35:00
3:55 PM,17.6,12.2,79,30.13,1.0,NE,4.6,-,N/A,,Overcast,40,2013-01-28 20:55:00
4:15 PM,17.6,14.0,86,30.14,1.8,Calm,Calm,-,N/A,,Overcast,0,2013-01-28 21:15:00
4:35 PM,17.6,14.0,86,30.13,0.8,NNE,3.5,-,N/A,,Overcast,20,2013-01-28 21:35:00
4:55 PM,17.6,14.0,86,30.11,1.0,NE,3.5,-,0.01,,Overcast,50,2013-01-28 21:55:00
5:15 PM,17.6,14.0,86,30.11,1.2,NNE,3.5,-,N/A,,Overcast,20,2013-01-28 22:15:00
5:35 PM,19.4,14.0,80,30.11,3.0,NNE,4.6,-,N/A,,Overcast,20,2013-01-28 22:35:00
6:15 PM,19.4,15.8,86,30.09,5.0,ENE,5.8,-,N/A,,Overcast,70,2013-01-28 23:15:00
6:35 PM,19.4,15.8,86,30.09,5.0,NE,4.6,-,N/A,,Overcast,40,2013-01-28 23:35:00
6:55 PM,19.4,15.8,86,30.09,3.0,NE,3.5,-,N/A,,Overcast,40,2013-01-28 23:55:00
7:15 PM,19.4,15.8,86,30.08,1.8,NE,4.6,-,N/A,,Overcast,50,2013-01-29 00:15:00
7:35 PM,19.4,15.8,86,30.07,3.0,NNE,4.6,-,N/A,,Overcast,30,2013-01-29 00:35:00
7:55 PM,19.4,15.8,86,30.06,1.2,NE,4.6,-,N/A,,Overcast,50,2013-01-29 00:55:00
8:35 PM,19.4,15.8,86,30.05,5.0,NE,4.6,-,0.01,,Overcast,40,2013-01-29 01:35:00
8:55 PM,19.4,15.8,86,30.05,3.0,NNE,3.5,-,0.01,,Mostly Cloudy,20,2013-01-29 01:55:00
9:15 PM,19.4,15.8,86,30.04,2.5,Calm,Calm,-,N/A,,Overcast,0,2013-01-29 02:15:00
9:35 PM,19.4,15.8,86,30.03,1.2,Calm,Calm,-,0.01,,Overcast,0,2013-01-29 02:35:00
9:55 PM,19.4,15.8,86,30.02,4.0,Calm,Calm,-,0.02,,Overcast,0,2013-01-29 02:55:00
10:15 PM,19.4,15.8,86,30.03,7.0,Calm,Calm,-,0.01,,Overcast,0,2013-01-29 03:15:00
10:55 PM,19.4,15.8,86,30.02,2.0,Calm,Calm,-,0.01,,Overcast,0,2013-01-29 03:55:00
11:15 PM,19.4,15.8,86,30.03,2.0,Calm,Calm,-,N/A,,Overcast,0,2013-01-29 04:15:00
11:35 PM,19.4,15.8,86,30.02,2.0,Calm,Calm,-,N/A,,Overcast,0,2013-01-29 04:35:00
11:55 PM,19.4,15.8,86,30.02,2.0,Calm,Calm,-,N/A,,Overcast,0,2013-01-29 04:55:00